Terminal Aerodrome Forecast
Issued by NWS

Home | Current Version | Previous Version | Text Only | Print | Product List | Glossary On
Versions: 1 2 3 4 5 6 7 8 9 10 11 12 13 14
000
FTUS45 KSLC 191737
TAFSGU
TAF
KSGU 191737Z 1918/2018 VRB04KT P6SM -SHRA SCT007 BKN020
     FM200600 20006KT P6SM SHRA BKN030
      AMD LTD TO CLD VIS AND WIND=

USA.gov is the U.S. government's official web portal to all federal, state and local government web resources and services.